Location: Altenstadt
(47.2500°N, 9.6167°E)
Time: 13:42:18
(UTC+00:00)

Daily predictions for brighter satellites

Satellite Brightness Start Highest point End
(mag) Time Altitude Azimuth Time Altitude Azimuth Time Altitude Azimuth
Cosmos 1092 Rocket 4.2 15:56:39 10° N 16:02:50 50° ENE 16:08:56 10° SSE
SJ-7 4.5 15:59:55 10° SSE 16:04:07 76° ENE 16:08:21 10° N
MOS 1 Rocket 4.2 16:01:27 10° N 16:06:18 54° WNW 16:10:50 10° SSW
COSMOS 2455 3.4 16:01:20 10° S 16:06:54 41° ESE 16:12:30 10° NE
Spot 1 4.4 16:07:04 10° NNE 16:11:49 67° ESE 16:16:47 10° S
Cosmos 2322 Rocket 3.7 16:10:37 10° N 16:14:07 16° NE 16:17:37 10° ENE
Cosmos 1697 Rocket 2.7 16:08:52 10° NNW 16:14:31 87° ENE 16:20:08 10° SSE
CZ-4C R/B 3.1 16:09:09 10° NW 16:16:00 53° NE 16:24:03 10° ESE
Cosmos 468 Rocket 4.0 16:13:02 10° SSW 16:18:12 89° ESE 16:23:28 10° NNE
Cosmos 1980 Rocket 2.3 16:14:10 10° NNW 16:19:44 54° ENE 16:25:15 10° SE
NOAA 12 4.1 16:15:56 10° SSE 16:21:15 84° ENE 16:26:36 10° NNW
ATLAS CENTAUR R/B 3.1 16:13:43 10° SW 16:24:40 82° SE 16:28:48 12° NE
Meteor PRIRODA 3.8 16:21:36 10° S 16:25:13 79° WSW 16:28:52 10° NNW
COSMO-SKYMED 1 4.2 16:22:45 10° NE 16:25:29 16° E 16:28:12 10° SE
Cosmos 1898 Rocket 3.8 16:20:28 10° NNW 16:25:44 74° WSW 16:30:54 10° SSE
Cosmos 1627 Rocket 4.5 16:19:41 10° N 16:25:49 62° ENE 16:31:52 10° SSE
Cosmos 2369 3.7 16:20:48 10° NNW 16:26:34 74° ENE 16:32:17 10° SSE
Cosmos 1933 3.3 16:23:26 10° S 16:27:26 69° E 16:31:28 10° NNE
USA 305 3.8 16:25:32 10° WNW 16:29:24 33° N 16:32:38 14° ENE
Cosmos 1633 Rocket 3.9 16:25:44 10° NNE 16:29:30 28° ENE 16:33:16 10° SE
FengYun 1-2 T 4.2 16:24:15 10° SSE 16:29:48 82° ENE 16:35:23 10° NNW
Cosmos 2034 Rocket 4.2 16:23:55 10° SSW 16:30:04 76° W 16:36:16 10° N
CZ-4B R/B 3.1 16:26:26 10° S 16:30:25 74° WSW 16:34:15 10° NNW
Cosmos 1812 3.6 16:27:50 10° SSE 16:31:08 28° E 16:34:28 10° NNE
NOSS 2-2 (C) 4.3 16:26:18 10° NW 16:31:25 78° NE 16:38:38 10° SE
CORIOLIS 4.2 16:26:12 10° SSE 16:31:31 63° ENE 16:36:54 10° N
Cosmos 1818 4.1 16:27:17 10° NNW 16:32:25 38° NE 16:37:30 10° ESE
SL-16 R/B 3.2 16:29:08 10° N 16:33:45 25° NE 16:38:22 10° E
AQUARIUS 4.1 16:31:37 10° SSE 16:36:03 64° ENE 16:40:30 10° N
Cosmos 1151 Rocket 3.8 16:32:31 10° SSE 16:36:21 31° E 16:40:13 10° NNE
Cosmos 2082 Rocket 2.4 16:31:48 10° S 16:37:19 54° ESE 16:42:49 10° NE
USA 267 3.3 16:32:04 11° NE 16:38:24 78° SE 16:44:57 10° SW
SMAP 3.0 16:36:13 10° SSE 16:40:52 83° ENE 16:45:33 10° NNW
Meteor 2-14 Rocket 4.4 16:36:17 10° N 16:42:25 75° E 16:48:29 10° SSE
Meteor 1-14 Rocket 4.4 16:38:12 10° N 16:43:55 53° ENE 16:49:43 10° SSE
ARGOS 3.7 16:42:43 10° SE 16:47:33 35° ENE 16:52:24 10° N
MOS 1-B 4.4 16:41:59 10° SE 16:47:37 56° ENE 16:53:16 10° N
Cosmos 1763 Rocket 4.3 16:43:07 10° SW 16:48:04 50° WNW 16:53:04 10° NNE
Cosmos 2333 Rocket 4.0 16:46:00 10° N 16:48:19 12° NNE 16:49:03 12° NE
Cosmos 1634 Rocket 4.0 16:42:31 10° S 16:48:49 75° E 16:55:10 10° NNE
Cosmos 2278 3.7 16:44:08 10° NNW 16:49:50 65° ENE 16:55:29 10° SE
Cosmos 2026 Rocket 3.9 16:44:19 10° N 16:50:29 89° E 16:56:34 10° S
CZ-4B DEB 4.1 16:45:21 10° SSE 16:50:51 78° ENE 16:56:22 10° NNW
Cosmos 1602 4.3 16:47:07 10° NNW 16:50:56 62° W 16:54:45 10° S
Cosmos 44 Rocket 3.5 16:49:49 10° NNW 16:54:36 47° NE 16:59:14 10° ESE
Cosmos 1833 Rocket 3.3 16:49:33 10° SW 16:55:04 57° WNW 17:00:39 10° NNE
CZ-2C R/B 4.3 16:51:27 10° S 16:56:03 41° W 17:00:34 10° NNW
Cosmos 841 Rocket 3.4 16:51:08 10° SSW 16:56:17 89° ESE 17:01:28 10° NNE
Cosmos 1666 Rocket 3.5 16:52:54 10° N 16:57:20 62° ENE 17:01:41 10° SSE
Okean O Rocket 2.2 16:53:32 10° SE 16:57:35 35° ENE 17:01:38 10° N
MOS 1-B Rocket 4.2 16:52:31 10° NNE 16:58:24 54° ESE 17:05:05 10° S
Cosmos 1328 Rocket 4.0 16:55:51 10° SSE 17:00:00 40° E 17:03:23 14° NNE
Cosmos 1470 Rocket 4.2 16:56:35 10° N 17:00:39 34° ENE 17:04:44 10° SE
H-2A R/B 1.9 16:56:00 10° SSE 17:01:05 68° ENE 17:06:05 10° N
USA 306 3.6 16:57:53 10° WNW 17:01:51 37° NNE 17:03:36 26° ENE
Cosmos 1939 Rocket 3.8 16:58:26 10° S 17:02:26 51° W 17:06:25 10° NNW
COSMOS 2406 3.7 16:58:31 10° SW 17:04:12 62° WNW 17:09:55 10° NNE
Cosmos 2219 Rocket 4.1 17:02:41 10° N 17:04:46 12° NNE 17:04:46 12° NNE
ISS -2.8 17:01:58 10° WNW 17:05:15 47° SSW 17:08:21 11° SE
ATLAS 2AS CENTAUR R/B 4.3 17:01:03 10° NW 17:06:46 22° N 17:10:37 15° NE
Cosmos 372 Rocket 4.3 17:02:07 10° NNW 17:07:20 70° WSW 17:12:33 10° S
CZ-2C R/B 2.8 17:03:01 10° NNE 17:08:01 45° E 17:12:56 10° S
Meteor 2-21 Rocket 4.4 17:02:08 10° N 17:08:17 86° E 17:14:20 10° S
Cosmos 1125 Rocket 3.9 17:03:52 10° N 17:08:48 39° ENE 17:13:42 10° SE
Cosmos 1500 3.9 17:07:10 10° NNW 17:10:50 54° W 17:14:27 10° S
USA 234 3.3 17:05:51 10° SE 17:12:24 81° SW 17:18:58 10° NW
SKYMED 2 3.8 17:11:18 21° NE 17:13:55 47° E 17:18:05 10° S
Cosmos 1782 3.7 17:12:40 10° SSW 17:16:33 50° WNW 17:20:27 10° N
Cosmos 1900 4.4 17:11:51 10° SSW 17:16:36 58° ESE 17:18:52 30° NE
CZ-2D R/B 3.4 17:13:59 10° S 17:17:48 72° WSW 17:21:38 10° NNW
Sich 1 4.2 17:14:19 10° NNW 17:18:24 44° W 17:22:30 10° SSW
Cosmos 1655 Rocket 4.1 17:12:53 10° N 17:19:08 52° ENE 17:25:19 10° SSE
CZ-4B R/B 3.0 17:14:41 10° SSE 17:20:04 75° ENE 17:25:25 10° NNW
USA 307 3.5 17:17:31 10° NW 17:21:33 40° NNE 17:22:25 36° NE
Cosmos 2180 Rocket 4.4 17:16:12 10° S 17:22:28 67° E 17:28:41 10° NNE
Meteor 2-6 Rocket 4.2 17:17:01 10° S 17:22:41 66° E 17:28:14 10° NNE
APEX 4.3 17:20:53 10° S 17:23:25 26° SE 17:23:25 26° SE
SJ-11-01 4.2 17:19:42 10° SSE 17:24:24 66° ENE 17:29:07 10° N
ATLAS 5 CENTAUR R/B 2.0 17:19:08 10° NW 17:25:56 49° NNE 17:26:27 45° ENE
deb Chang Zheng 4 3.4 17:25:54 10° SSE 17:30:13 84° ENE 17:34:34 10° NNW
Cosmos 2360 Rocket 2.9 17:32:42 10° NNW 17:37:21 32° NE 17:37:21 32° NE
Lacrosse 5 rocket 1.1 17:34:27 10° NW 17:38:24 89° NE 17:39:13 56° SE
Cosmos 1666 3.7 17:36:20 10° NNW 17:39:54 45° W 17:43:27 10° SSW
USA 308 3.3 17:40:07 10° NW 17:44:08 48° NNE 17:44:08 48° NNE
Cosmos 1515 Rocket 3.5 17:40:12 10° S 17:44:35 64° E 17:44:48 62° ENE
Meteor 1-10 Rocket 4.1 17:46:25 10° S 17:52:11 83° E 17:56:15 20° NNE
Meteor 1-11 Rocket 3.6 17:47:08 10° N 17:52:47 77° ENE 17:58:31 10° SSE
COSMOS 2455 3.8 17:47:05 10° WSW 17:52:49 44° NW 17:56:39 20° NNE
Cosmos 921 Rocket 2.9 17:53:28 10° SSW 17:57:39 80° WNW 17:57:55 75° NNW
Cosmos 2322 Rocket 2.1 17:53:35 10° NNW 17:59:18 68° ENE 18:00:16 57° ESE
SL-08 RB Rocket 3.7 17:54:54 10° SSE 17:59:32 84° WSW 18:04:10 10° NNW
COSMO-SKYMED 1 3.1 17:59:55 28° N 18:02:00 56° WNW 18:06:15 10° SSW
Cosmos 2298 Rocket 4.2 17:57:09 10° NNW 18:02:29 71° WSW 18:07:46 10° SSE
Cosmos 1980 Rocket 4.3 17:58:45 10° NW 18:03:24 27° WSW 18:08:00 10° SSW
CZ-4C R/B 3.8 17:57:42 10° NW 18:04:47 51° WSW 18:12:53 10° SSE
Meteor 2-15 Rocket 4.4 18:03:04 10° S 18:09:12 87° W 18:14:06 17° N
USA 305 3.7 18:05:33 10° WNW 18:08:39 45° NW 18:08:39 45° NW
Feng Yun 1-1 Rocket 4.4 18:04:49 10° SSE 18:10:44 81° WSW 18:16:38 10° NNW
CZ-2C R/B 3.8 18:12:58 10° SSW 18:14:25 14° S 18:14:25 14° S
Cosmos 2266 Rocket 4.4 18:11:53 10° NNW 18:18:13 65° W 18:24:33 10° S
Aureole 3 Rocket 4.3 18:14:02 10° S 18:26:48 - N 18:16:26 36° S
SL-16 R/B 2.4 18:12:45 10° NNW 18:18:24 70° WSW 18:21:04 32° S
USA 267 3.8 18:19:25 40° NNE 18:21:12 49° NNW 18:27:26 10° W
Cosmos 2082 Rocket 3.8 18:16:47 10° WSW 18:21:42 30° NW 18:24:53 18° N
ARGOS 4.5 18:22:45 10° SSW 18:27:46 38° W 18:32:48 10° NNW
GEOS 3 Rocket 3.9 18:30:36 61° NW 18:30:36 61° NW 18:34:52 10° NW
Okean O Rocket 3.7 18:30:10 10° SSW 18:33:58 27° W 18:37:48 10° NW
Cosmos 2333 Rocket 3.8 18:28:40 10° NNW 18:31:06 24° N 18:31:06 24° N
Cosmos 1867 4.5 18:35:12 10° SSW 18:38:41 41° SSW 18:38:41 41° SSW
CZ-2C R/B 4.4 18:44:29 13° NNW 18:48:06 28° WNW 18:52:24 10° WSW
Cosmos 2219 Rocket 4.2 18:44:58 10° NNW 18:46:30 18° NNW 18:46:30 18° NNW
ATLAS CENTAUR R/B 4.4 18:51:31 10° WNW 18:54:28 19° NW 18:54:28 19° NW
ATLAS 2AS CENTAUR R/B 4.0 18:53:29 10° NW 18:58:02 29° N 18:58:02 29° N
Cosmos 2360 Rocket 4.0 19:16:33 10° NW 19:19:09 26° NW 19:19:09 26° NW
Cosmos 2322 Rocket 4.4 19:38:38 10° NW 19:42:10 21° W 19:42:10 21° W
